Location: Bourgheim
(48.4186°N, 7.4941°E)
Time: 22:26:59
(UTC+00:00)

Daily predictions for brighter satellites

Satellite Brightness Start Highest point End
(mag) Time Altitude Azimuth Time Altitude Azimuth Time Altitude Azimuth
Cosmos 2360 4.5 16:02:18 10° NNW 16:07:52 48° NE 16:13:23 10° SE
Lacrosse 5 rocket 2.5 16:07:54 10° NW 16:11:07 25° N 16:14:27 10° ENE
Cosmos 1743 Rocket 3.9 16:07:08 10° N 16:11:18 44° ENE 16:15:26 10° SSE
Okean O Rocket 3.3 16:13:17 10° E 16:15:39 14° ENE 16:18:02 10° NNE
USA 267 3.4 16:14:25 10° ENE 16:20:57 67° SE 16:27:27 10° SW
Cosmos 2360 Rocket 4.1 16:21:44 10° NNE 16:22:59 11° NNE 16:24:13 10° NE
H-2A R/B 2.7 16:19:54 10° SE 16:24:20 30° ENE 16:28:42 10° N
SJ 16-02 3.7 16:21:08 10° NW 16:24:54 28° W 16:28:39 10° SSW
Cosmos 1763 Rocket 3.5 16:22:38 10° S 16:27:35 59° ESE 16:32:37 10° NNE
CZ-4B R/B 2.8 16:24:32 10° SSE 16:28:35 88° ENE 16:32:26 10° NNW
USA 276 3.9 16:26:03 10° W 16:28:53 32° SSW 16:31:43 10° SE
USA 305 3.6 16:25:08 10° WNW 16:29:08 39° N 16:32:46 12° ENE
Cosmos 1656 4.3 16:25:13 10° NNW 16:30:42 63° WSW 16:36:13 10° SSE
Cosmos 1933 3.7 16:29:54 10° SSE 16:33:43 42° E 16:37:33 10° NNE
Cosmos 841 Rocket 4.3 16:29:39 10° SSE 16:34:09 31° ESE 16:38:39 10° NE
PSLV R/B 4.3 16:31:26 10° SE 16:34:47 34° ENE 16:38:13 10° N
USA 229 DEB 4.0 16:28:22 10° NW 16:35:42 86° SW 16:43:30 10° SE
Cosmos 1464 Rocket 4.3 16:29:23 10° SSW 16:35:46 74° W 16:42:10 10° N
USA 229 4.0 16:28:27 10° NW 16:35:47 87° SW 16:43:36 10° SE
Cosmos 1937 Rocket 3.5 16:31:47 10° NNW 16:37:05 62° ENE 16:42:21 10° SE
Spot 1 4.4 16:35:03 10° NNE 16:39:45 84° WNW 16:44:42 10° SSW
Cosmos 1500 Rocket 3.6 16:35:23 10° N 16:39:52 90° NW 16:44:16 10° S
Cosmos 1666 3.9 16:37:16 10° NNE 16:40:06 20° ENE 16:42:54 10° ESE
Nadezhda 4 Rocket 4.3 16:35:20 10° NNW 16:41:39 77° W 16:47:58 10° S
SeaSat 1 4.3 16:38:00 10° N 16:41:54 24° NW 16:45:47 10° W
SL-24 R/B - RUBIN 2 3.7 16:38:06 10° NNW 16:42:37 52° NE 16:46:52 10° ESE
Cosmos 2322 Rocket 3.7 16:40:01 10° N 16:43:46 17° NE 16:45:58 14° ENE
Cosmos 990 Rocket 4.4 16:38:50 10° NNW 16:44:00 67° WSW 16:49:06 10° S
ATLAS 2AS CENTAUR R/B 4.2 16:37:37 10° WNW 16:44:00 27° NNW 16:50:01 10° NE
FengYun 1-2 T 4.3 16:40:38 10° SSE 16:46:14 85° WSW 16:51:49 10° NNW
Cosmos 1697 Rocket 2.7 16:40:46 10° NNW 16:46:25 89° WSW 16:52:02 10° SSE
Cosmos 372 Rocket 4.1 16:43:10 10° NNW 16:48:17 51° ENE 16:53:23 10° SE
Sich 1 3.1 16:45:23 10° N 16:49:36 54° ENE 16:53:49 10° SSE
NOAA 6 4.0 16:44:28 10° SSE 16:49:37 85° ENE 16:54:47 10° NNW
Cosmos 1980 Rocket 2.3 16:45:08 10° NNW 16:50:44 56° ENE 16:56:16 10° SE
Cosmos 1805 Rocket 3.4 16:47:16 10° N 16:51:37 72° ENE 16:55:56 10° SSE
Cosmos 2221 3.7 16:47:58 10° SSW 16:52:02 43° WNW 16:56:10 10° N
Cosmos 2369 3.7 16:46:55 10° NNW 16:52:41 71° ENE 16:58:23 10° SE
USA 234 3.4 16:48:50 10° SE 16:55:23 81° SW 17:01:58 10° NW
CZ-4C R/B 3.0 16:50:15 10° NW 16:57:08 60° NE 17:05:17 10° ESE
Cosmos 1092 Rocket 4.0 16:51:12 10° N 16:57:36 86° E 17:03:56 10° S
Cosmos 1428 Rocket 4.4 16:54:11 10° N 17:00:20 79° E 17:06:30 10° SSE
Cosmos 1812 3.4 16:57:19 10° SSE 17:00:45 32° E 17:02:43 20° NE
USA 306 3.7 16:57:23 10° WNW 17:01:23 38° N 17:03:35 22° ENE
SL-16 R/B 3.2 16:57:14 10° N 17:01:55 26° NE 17:04:16 20° E
ISS -3.8 16:59:23 10° WNW 17:02:47 89° NNE 17:05:00 20° ESE
Meteor 1-25 Rocket 4.4 16:57:44 10° NNW 17:03:19 75° W 17:08:53 10° S
MOS 1-B Rocket 4.3 16:58:55 10° NNE 17:04:38 50° E 17:11:05 10° S
NOSS 2-2 (D) 4.2 16:59:45 10° NW 17:04:50 81° NE 17:11:58 10° SE
deb Chang Zheng 4 3.9 17:01:01 10° SE 17:05:05 41° ENE 17:09:09 10° N
NOSS 2-2 (E) 4.4 16:59:57 10° NW 17:05:11 87° SW 17:12:35 10° SE
SMAP 3.4 17:01:01 10° S 17:05:39 68° WSW 17:10:19 10° NNW
Cosmos 2082 Rocket 2.5 17:01:10 10° S 17:06:36 49° ESE 17:10:43 17° NE
Cosmos 1939 Rocket 3.7 17:02:52 10° S 17:06:55 56° W 17:10:57 10° NNW
CORIOLIS 4.4 17:03:11 10° S 17:08:36 76° WSW 17:14:03 10° NNW
Cosmos 44 Rocket 3.8 17:07:25 10° NNW 17:12:04 39° NE 17:14:23 24° E
Cosmos 2333 Rocket 4.1 17:09:40 10° N 17:12:12 13° NNE 17:12:25 13° NNE
Meteor 2-16 Rocket 4.4 17:08:08 10° N 17:14:11 58° ENE 17:20:13 10° SSE
CZ-4B DEB 4.4 17:09:26 10° SSE 17:14:58 78° WSW 17:20:29 10° NNW
Cosmos 2278 3.7 17:11:03 10° NNW 17:16:45 64° ENE 17:22:24 10° SE
Cosmos 1602 4.4 17:12:59 10° NNW 17:16:48 57° W 17:20:35 10° S
Cosmos 2142 Rocket 4.5 17:12:48 10° S 17:18:48 58° E 17:24:54 10° NNE
USA 307 3.6 17:16:11 10° WNW 17:20:14 39° N 17:21:38 30° NE
Cosmos 540 Rocket 3.4 17:16:27 10° SSW 17:21:33 84° WNW 17:26:07 13° NNE
ARGOS 3.1 17:19:48 10° SSE 17:25:07 60° ENE 17:30:26 10° N
COSMO-SKYMED 1 2.7 17:23:24 24° NE 17:25:44 50° E 17:29:57 10° S
Cosmos 1570 Rocket 4.2 17:21:17 10° S 17:26:16 46° ESE 17:28:35 28° NE
Cosmos 2279 Rocket 3.9 17:20:17 10° S 17:26:23 62° E 17:32:30 10° NNE
Cosmos 2298 Rocket 4.5 17:21:40 10° N 17:26:40 39° ENE 17:28:50 27° ESE
COSMOS 2406 3.3 17:21:34 10° SSW 17:27:19 78° WNW 17:32:09 15° NNE
Cosmos 1833 Rocket 3.1 17:23:07 10° SW 17:28:41 61° WNW 17:33:42 13° NNE
Cosmos 2266 Rocket 4.3 17:23:27 10° N 17:29:30 43° ENE 17:35:34 10° SE
Cosmos 1782 3.0 17:25:50 10° SSW 17:29:49 70° W 17:33:49 10° N
Cosmos 1814 Rocket 4.0 17:25:59 10° S 17:31:06 58° ESE 17:33:44 28° NE
ATLAS 5 CENTAUR R/B 2.3 17:24:53 10° NW 17:32:26 48° NNE 17:33:08 42° ENE
Cosmos 921 Rocket 4.4 17:30:46 10° SSE 17:32:43 21° SE 17:32:43 21° SE
Cosmos 1633 Rocket 2.9 17:30:25 10° N 17:34:48 73° E 17:39:11 10° SSE
ATLAS CENTAUR R/B 4.0 17:34:06 10° NW 17:36:02 12° NNW 17:37:49 10° N
Cosmos 1818 3.6 17:30:46 10° NNW 17:36:12 59° NE 17:38:50 30° ESE
Cosmos 2219 Rocket 4.1 17:34:32 10° N 17:36:27 13° NNE 17:36:27 13° NNE
YAOGAN 1 3.9 17:39:35 24° NNE 17:39:35 24° NNE 17:41:35 10° N
GEOS 3 Rocket 3.8 17:37:58 35° E 17:39:53 52° NE 17:44:55 10° NNW
CZ-2D R/B 4.2 17:36:42 10° S 17:40:24 48° W 17:44:08 10° NNW
Meteor 2-6 Rocket 4.2 17:35:39 10° S 17:41:17 59° E 17:45:14 19° NNE
ERBS 4.3 17:39:01 10° NW 17:41:01 18° NNW 17:41:01 18° NNW
USA 308 3.4 17:38:48 10° WNW 17:42:50 41° N 17:43:13 40° NNE
SJ-11-01 4.2 17:38:19 10° SSE 17:43:04 84° ENE 17:47:50 10° NNW
Cosmos 1634 Rocket 4.3 17:37:07 10° SSW 17:43:25 68° WNW 17:49:45 10° N
COSMOS 2455 2.8 17:38:37 10° SW 17:44:39 85° NW 17:48:14 26° NNE
CZ-2C R/B 2.4 17:40:35 14° NNE 17:45:10 77° ESE 17:50:20 10° S
CZ-4B R/B 3.3 17:41:54 10° S 17:47:19 76° WSW 17:52:42 10° NNW
Cosmos 1151 Rocket 3.0 17:44:30 10° S 17:48:48 84° W 17:51:27 24° N
SKYMED 3 4.4 17:47:47 30° NNE 17:49:54 87° E 17:54:15 10° SSW
Lacrosse 5 rocket 1.3 17:46:53 10° NW 17:50:36 60° NNE 17:50:36 60° NNE
Okean O Rocket 1.6 17:46:56 10° SSE 17:51:23 83° WSW 17:55:53 10° NNW
CZ-4 R/B 3.9 17:59:39 11° N 17:59:39 11° N 17:59:48 10° N
Meteor 2-15 4.3 17:52:39 10° S 17:58:42 68° E 18:03:29 17° NNE
Cosmos 2208 Rocket 3.9 17:54:53 10° SSW 18:00:15 72° ESE 18:01:40 49° NE
Cosmos 1666 Rocket 4.4 17:56:14 10° NNW 18:00:34 51° W 18:04:50 10° S
Meteor 1-11 Rocket 3.6 17:57:13 10° N 18:02:47 62° ENE 18:05:45 28° SSE
Meteor 1-10 Rocket 4.1 17:57:27 10° S 18:03:09 65° E 18:04:52 44° NE
H-2A R/B 3.3 17:58:45 10° SSW 18:03:38 42° W 18:08:26 10° NNW
Cosmos 1470 Rocket 3.4 17:59:24 10° N 18:03:53 86° E 18:08:21 10° S
USA 267 3.6 18:01:03 33° NE 18:03:55 57° NNW 18:10:17 10° W
Cosmos 2150 Rocket 3.8 17:59:02 10° NNW 18:04:13 69° ENE 18:04:48 63° ESE
Cosmos 1655 Rocket 3.9 17:59:32 10° N 18:05:59 79° E 18:12:21 10° SSE
Cosmos 1328 Rocket 3.6 18:01:54 10° SSW 18:06:21 78° W 18:07:31 49° N
Landsat 5 3.5 18:08:41 71° SSW 18:08:41 71° SSW 18:12:17 10° SSW
Cosmos 2360 Rocket 3.3 18:03:41 10° NNW 18:07:10 29° NNE 18:07:10 29° NNE
USA 305 3.6 18:05:26 10° WNW 18:08:46 43° NNW 18:08:46 43° NNW
SKYMED 2 4.2 18:12:01 31° N 18:13:49 55° WNW 18:18:04 10° SSW
Cosmos 1666 4.4 18:12:20 10° NNW 18:15:42 32° W 18:19:02 10° SSW
Feng Yun 1-1 Rocket 4.4 18:10:49 10° SSE 18:16:45 82° WSW 18:22:39 10° NNW
ATLAS CENTAUR R/B 2.9 18:13:23 10° WSW 18:20:25 45° NNW 18:20:43 44° NNW
Cosmos 1125 Rocket 3.4 18:17:03 10° NNW 18:22:14 86° NNE 18:22:14 86° NNE
Cosmos 2322 Rocket 2.5 18:23:13 10° NNW 18:27:49 55° N 18:27:49 55° N
Cosmos 1980 Rocket 4.2 18:29:44 10° NW 18:34:22 27° WSW 18:38:58 10° SSW
ATLAS 2AS CENTAUR R/B 4.0 18:31:10 10° NW 18:37:25 27° NNE 18:37:27 27° NNE
ISS -0.8 18:36:40 10° W 18:37:59 17° WSW 18:37:59 17° WSW
CZ-4C R/B 3.9 18:38:51 10° NW 18:45:49 46° WSW 18:53:46 10° S
SL-16 R/B 2.4 18:40:55 10° NNW 18:46:11 68° W 18:46:11 68° W
Cosmos 2082 Rocket 3.6 18:45:45 10° WSW 18:50:53 34° NW 18:52:35 28° NNW
Cosmos 2333 Rocket 4.1 18:52:37 10° NNW 18:54:27 20° N 18:54:27 20° N
Cosmos 2219 Rocket 4.5 19:17:17 10° NNW 19:18:11 15° NNW 19:18:11 15° NNW
